This is the latest recevied weather packets stored in our database for station/object K3BAY-1. If no packets are shown the sender has not sent any weather packets the latest 10 day(s).
| Time | Temp. | Humidity | Pressure | Rain* | Wind** | Luminosity | Snow |
|---|---|---|---|---|---|---|---|
| 1777740959 | 14.44° C | 53% | 1012.9 hPa | 0 mm | - | 237 W/m² | - |
| 1777739745 | 13.89° C | 49% | 1012.9 hPa | 0 mm | - | 351 W/m² | - |
| 1777739442 | 13.89° C | 51% | 1012.9 hPa | 0 mm | - | 246 W/m² | - |
| 1777739139 | 13.89° C | 51% | 1012.6 hPa | 0 mm | - | 193 W/m² | - |
| 1777738836 | 13.89° C | 51% | 1012.6 hPa | 0 mm | - | 193 W/m² | - |
| 1777738532 | 13.89° C | 50% | 1012.9 hPa | 0 mm | - | 200 W/m² | - |
| 1777738231 | 13.89° C | 53% | 1012.6 hPa | 0 mm | - | 219 W/m² | - |
| 1777737928 | 14.44° C | 52% | 1012.9 hPa | 0 mm | - | 224 W/m² | - |
| 1777737626 | 14.44° C | 52% | 1012.9 hPa | 0 mm | - | 224 W/m² | - |
| 1777737325 | 13.33° C | 55% | 1012.6 hPa | 0 mm | - | 209 W/m² | - |
| 1777736717 | 13.89° C | 57% | 1012.6 hPa | 0 mm | - | 155 W/m² | - |
| 1777736084 | 12.22° C | 58% | 1012.6 hPa | 0 mm | - | 157 W/m² | - |
| 1777735780 | 12.78° C | 57% | 1012.6 hPa | 0 mm | - | 157 W/m² | - |
| 1777735478 | 12.78° C | 60% | 1012.6 hPa | 0 mm | - | 163 W/m² | - |
| 1777735065 | 12.78° C | 61% | 1012.6 hPa | 0 mm | - | 177 W/m² | - |
| 1777734762 | 12.78° C | 61% | 1012.6 hPa | 0 mm | - | 177 W/m² | - |
| 1777734459 | 12.22° C | 62% | 1012.6 hPa | 0 mm | - | 190 W/m² | - |
| 1777734156 | 12.22° C | 63% | 1012.2 hPa | 0 mm | - | 197 W/m² | - |
| 1777733852 | 12.22° C | 64% | 1012.2 hPa | 0 mm | - | 202 W/m² | - |
| 1777733549 | 11.67° C | 62% | 1012.6 hPa | 0 mm | - | 204 W/m² | - |
| 1777733245 | 11.67° C | 64% | 1012.6 hPa | 0 mm | - | 200 W/m² | - |
| 1777732638 | 12.22° C | 66% | 1012.6 hPa | 0 mm | - | 171 W/m² | - |
| 1777732336 | 11.67° C | 69% | 1012.2 hPa | 0 mm | - | 163 W/m² | - |
| 1777732034 | 11.11° C | 66% | 1012.6 hPa | 0 mm | - | 167 W/m² | - |
| 1777731730 | 11.11° C | 66% | 1012.6 hPa | 0 mm | - | 167 W/m² | - |
* Rain latest hour (hover to see other rain measurements)
** Current wind speed in m/s (hover to see current wind gust speed)